THOR ABLESTAR DEB, 48816

Orbit data source: Space-Track

THOR ABLESTAR DEB, 48816 is space debris in LEO originally from a launch on Thu, 29 Jun 1961 UTC launched from the Air Force Eastern Test Range (AFETR). Debris objects in space refer to the collection of defunct objects orbiting the Earth. Examples of debris include non-operational satellites, rocket bodies, and fragments generated from explosions, collisions, or faulty payload assembly.

Loading next visibility...
Identifier
48816, 1961-015MU
Orbit
LEO
Country
Flag of USUS
Related business
Manufacturer
Unknown
Mission
Spacecraft
Bus & Motor
Unknown
Mass
Unknown
Launch date (UTC)
1961-06-29 (65 years ago)
Launch vehicle
Unknown
Launch site
Air Force Eastern Test Range (AFETR)
Object type
Payload
Rocket body
Debris
Shape & HBR
Unknown shape, 0.1 m
Radar Cross Section
Small (<0.1 m²)

Expand to show TLE details & history
Last TLE update: 4 days ago

TLE from 4 days ago
0 THOR ABLESTAR DEB
1 48816U 61015MU  26216.07232126  .00000350  00000-0  23813-3 0  9998
2 48816  66.8054 141.5264 0100836 162.5779 197.8812 14.08755977652581
Epoch: 2026-08-04T01:44Z
TLE epoch observation values (Epoch: 2026-08-04T01:44:08.556Z)
Latitude
0.00004°
Longitude
162.84444°
Altitude
935.299 km
Speed
7.349 km/s
True Right ascension
09h 26m 06s
True Declination
0° 00' 00"
Sunlit
Object was in daylight at epoch
Visualization orbit readout
Latitude
Unknown
Longitude
Unknown
Altitude
Unknown
Speed
Unknown
Apparent Right ascension
Unknown
Apparent Declination
Unknown
Sunlit
N/A
Visualization observer readout
Local Sidereal Time
23:31:36
Azimuth
Unknown
Elevation
Unknown
Doppler factor
Unknown
Orbital elements
Apogee altitude
935.017 km
Perigee altitude
789.004 km
Semi-major axis
7,240.148 km
Eccentricity
0.01008
Inclination
66.8054°
RAAN
141.5264°
Arg. of periapsis
162.5779°
True anomaly
197.53062°
Mean anomaly
197.8812°
Eccentric anomaly
197.70549°
Mean motion
3.52308 °/min
Orbital period
102.18 mins
BSTAR
0.00023813
Loading maneuver chart data...
Computing Atmospheric mass density...
Loading historical data...
Loading historical data...
Loading historical data...
Loading historical data...
Loading historical data...
Loading historical data...
Loading historical data...

Documentation

Showing up to 5 results
|